国际通讯卫星 33E星 (INTELSAT 33E (IS-33E))

导读

INTELSAT 33E(IS-33E)由国际通信卫星组织(ITSO)所属,于2016年8月24日发射,是基于波音702MP平台建造的高通量地球静止轨道通信卫星,设计寿命15年,为亚洲、欧洲及非洲提供通信服务。发射后因推进系统故障两次出现问题,服役寿命被缩短3.5年,截至2024年10月已发生在轨解体,成为太空垃圾。

基本信息
目录编号:
41748
目录名称:
INTELSAT 33E
国际标识:
2016-053B
轨道中心:
EARTH
卫星名称:
国际通讯卫星 33E星
卫星全名:
国际通讯卫星 33E星 (INTELSAT 33E (IS-33E))
卫星状态:
在轨 (已飞行3670 天)
发射日期:
2016-08-24 UTC
国别 :
(ITSO)
星等 :
--
该卫星已列入 空间交会检测服务 Space Conjunction Data Service (SCDS) ,当前飞行风险评估等级: 无高风险
轨道信息
数据来源 国际轨道数据 AOE轨道数据
星历时间 2026-09-11T04:58:16+0800
14小时前
查看轨道信息
2026-09-05T10:00:00+0800
6天前
查看轨道信息
半长轴 42179.003km 42179.873km
偏心率 0.0023801 0.0023937
轨道倾角 1.791° 1.775°
近地点辐角 190.567° 190.172°
升交点赤经 82.933° 83.019°
平近点角 56.532° 127.660°
近地点 35700.475km 35700.77km
远地点 35901.257km 35902.702km
周期 1436.826分钟 1436.870分钟
每日圈数 1.002209 1.002178
详细信息
卫星平台:
SSL 1300
平衡模式:
三轴稳定
覆盖范围:
全球
运营商:
国际卫星通信公司
运营商所在国:
美国
制造商(研发单位):
波音公司
制造商所在国:
美国
使用方式:
暂无
卫星简介
从1965年4月至1984年3月,国际通信卫星组织发射了5代、6种不同性能的卫星共计35颗,除6颗卫星因运载火箭和远地点发动机故障而发射失败外,其余29颗卫星均被送到了预定的静止轨道位置。1984年8月前后,国际通信卫星组织利用部署在大西洋、太平洋、印度洋上空的15颗国际通信卫星,为遍布世界各地170多个国家或地区提供电话、电传、电报、电视和数据传输等电信业务;该卫星仍在工作。
2D轨道图
3D轨道图
轨道高度分析图
轨道倾角分析图
轨道综合分析图
查看轨道综合分析图
与全量物体交会距离演化趋势
与全量物体交会风险概率演化趋势